Stations météo

réclame
Mon MeteoGroup
Wattisham, Grande-Bretagne (3590): Température de l'air & dewpoint: 09.09.2019 07:00:00 - 15.09.2019 07:00:00 (BST)Wattisham, Grande-Bretagne (3590): Température de l'air -20cm & Température de l'air -100cm: 09.09.2019 07:00:00 - 15.09.2019 07:00:00 (BST)Wattisham, Grande-Bretagne (3590): Vitesse du vent & gusts: 09.09.2019 07:00:00 - 15.09.2019 07:00:00 (BST)Wattisham, Grande-Bretagne (3590): Direction du vent: 09.09.2019 07:00:00 - 15.09.2019 07:00:00 (BST)Wattisham, Grande-Bretagne (3590): reduced air pressure: 09.09.2019 07:00:00 - 15.09.2019 07:00:00 (BST)Wattisham, Grande-Bretagne (3590): visibility: 09.09.2019 07:00:00 - 15.09.2019 07:00:00 (BST)Wattisham, Grande-Bretagne (3590): Ensoleillement: 09.09.2019 07:00:00 - 15.09.2019 07:00:00 (BST)Wattisham, Grande-Bretagne (3590): Quantités de précipitations: 09.09.2019 07:00:00 - 15.09.2019 07:00:00 (BST)
Date & Time tt [°C] td [°C] tt -20cm [°C] tt -100cm [°C] ff [km/h] ff [knt] fx [km/h] fx [knt] dd ppp [hPa] vv [km] sd [min] rr [mm]
15.09.2019 07:00:00 8,8 7,2 - - 13 7 - - WSW 1024,3 30 0 0,0
15.09.2019 06:00:00 8,0 5,6 - - 11 6 - - WSW 1024,3 28 0 0,0
15.09.2019 05:00:00 9,1 7,5 - - 15 8 - - WSW 1024,2 27 0 0,0
15.09.2019 04:00:00 8,9 7,7 - - 11 6 - - WSW 1024,9 20 0 0,0
15.09.2019 03:00:00 10,1 9,7 - - 15 8 - - WSW 1025,4 13 0 0,0
15.09.2019 02:00:00 10,2 9,6 - - 8 4 - - SW 1025,9 7 0 0,0
15.09.2019 01:00:00 12,2 11,5 - - 11 6 - - SW 1026,3 10 - 0,0
15.09.2019 00:00:00 12,6 11,8 - - 9 5 - - SW 1026,9 10 0 0,0
14.09.2019 23:00:00 12,4 11,3 - - 8 4 - - SSW 1027,4 11 0 0,0
14.09.2019 22:00:00 13,7 12,4 - - 11 6 - - S 1027,8 17 0 0,0
14.09.2019 21:00:00 14,3 12,2 - - 13 7 - - S 1028,3 10 0 0,0
14.09.2019 20:00:00 14,8 11,0 - - 9 5 - - S 1028,5 40 0 0,0
14.09.2019 19:00:00 16,6 9,8 - - 11 6 - - S 1028,6 45 6 0,0
14.09.2019 18:00:00 18,5 11,2 - - 11 6 - - S 1028,7 35 18 0,0
14.09.2019 17:00:00 19,7 10,4 - - 13 7 - - SSW 1028,9 10 48 0,0
14.09.2019 16:00:00 21,4 6,9 - - 5 3 - - W 1029,8 45 60 0,0
14.09.2019 15:00:00 20,9 6,8 - - 9 5 - - SW 1030,7 10 60 0,0
14.09.2019 14:00:00 20,2 5,5 - - 5 3 - - SSE 1031,7 10 60 0,0
14.09.2019 13:00:00 18,9 7,4 - - 4 2 - - SSW 1032,8 10 60 0,0
14.09.2019 12:00:00 18,7 6,6 - - 5 3 - - SSE 1033,2 50 60 0,0
14.09.2019 11:00:00 17,1 9,2 - - 8 4 - - SSE 1034,0 30 60 0,0
14.09.2019 10:00:00 15,9 10,8 15,5 15,4 8 4 - - SE 1034,1 11 60 0,0
14.09.2019 09:00:00 12,8 9,8 - - 9 5 - - NE 1034,6 10 60 0,0
14.09.2019 08:00:00 10,0 9,3 - - 8 4 - - ENE 1034,6 20 48 0,0
14.09.2019 07:00:00 8,0 7,4 - - 8 4 - - NNE 1035,0 21 0 0,0
14.09.2019 06:00:00 8,1 7,4 - - 8 4 - - NE 1035,3 10 0 0,0
14.09.2019 05:00:00 7,5 6,6 - - 8 4 - - NNE 1035,4 14 0 0,0
14.09.2019 04:00:00 8,5 7,0 - - 8 4 - - NNE 1035,8 10 0 0,0
14.09.2019 03:00:00 10,3 8,3 - - 5 3 - - ENE 1035,9 23 0 0,0
14.09.2019 02:00:00 10,1 7,9 - - 8 4 - - NE 1036,4 23 0 0,0
14.09.2019 01:00:00 11,0 8,2 - - 8 4 - - E 1036,4 30 - 0,0
14.09.2019 00:00:00 11,4 8,1 - - 9 5 - - E 1036,5 35 0 0,0
13.09.2019 23:00:00 11,4 7,9 - - 8 4 - - ENE 1036,9 28 0 0,0
13.09.2019 22:00:00 12,1 8,7 - - 8 4 - - ESE 1036,9 27 0 0,0
13.09.2019 21:00:00 12,7 7,1 - - 8 4 - - ESE 1036,6 10 0 0,0
13.09.2019 20:00:00 14,3 7,5 - - 11 6 - - E 1036,1 40 6 0,0
13.09.2019 19:00:00 16,2 9,9 - - 9 5 - - ESE 1035,4 23 60 0,0
13.09.2019 18:00:00 18,2 5,6 - - 13 7 - - NNE 1035,2 45 60 0,0
13.09.2019 17:00:00 19,2 5,8 - - 13 7 - - NNE 1034,9 10 60 0,0
13.09.2019 16:00:00 19,4 6,7 - - 9 5 - - NE 1034,9 10 60 0,0
13.09.2019 15:00:00 19,2 6,6 - - 9 5 - - NNE 1034,8 10 60 0,0
13.09.2019 14:00:00 19,2 6,8 - - 11 6 - - NNE 1034,8 10 60 0,0
13.09.2019 13:00:00 17,9 8,0 - - 13 7 - - N 1035,1 10 54 0,0
13.09.2019 12:00:00 17,1 9,9 - - 9 5 - - NNE 1035,1 10 48 0,0
13.09.2019 11:00:00 16,6 10,2 - - 15 8 - - N 1034,8 10 60 0,0
13.09.2019 10:00:00 15,2 10,1 15,9 15,2 16 9 - - N 1034,6 10 60 0,0
13.09.2019 09:00:00 13,7 9,5 - - 21 11 - - N 1033,8 10 60 0,0
13.09.2019 08:00:00 12,5 8,9 - - 18 10 - - NNW 1033,1 10 36 0,0
13.09.2019 07:00:00 12,4 9,2 - - 16 9 - - NNW 1032,5 10 0 0,0
13.09.2019 06:00:00 14,0 11,3 - - 15 8 - - NW 1031,7 50 0 0,0
13.09.2019 05:00:00 14,8 12,5 - - 16 9 - - NW 1030,8 10 0 0,0
13.09.2019 04:00:00 16,0 14,0 - - 16 9 - - NNW 1030,0 10 0 0,0
13.09.2019 03:00:00 16,7 15,2 - - 13 7 - - NW 1029,0 35 0 0,0
13.09.2019 02:00:00 17,9 14,8 - - 16 9 - - W 1028,6 10 0 0,0
13.09.2019 01:00:00 18,1 15,1 - - 21 11 - - W 1028,3 35 - 0,0
13.09.2019 00:00:00 18,4 15,4 - - 21 11 - - W 1027,8 35 0 0,0
12.09.2019 23:00:00 18,8 15,4 - - 22 12 - - WSW 1027,4 10 0 0,0
12.09.2019 22:00:00 19,2 15,7 - - 18 10 - - WSW 1027,0 10 0 0,0
12.09.2019 21:00:00 19,7 15,4 - - 18 10 - - WSW 1026,6 10 0 0,0
12.09.2019 20:00:00 19,8 15,0 - - 18 10 - - SW 1025,8 10 6 0,0
12.09.2019 19:00:00 21,5 15,0 - - 24 13 - - WSW 1025,2 10 30 0,0
12.09.2019 18:00:00 22,8 14,8 - - 29 16 - - WSW 1025,0 10 12 0,0
12.09.2019 17:00:00 23,3 14,8 - - 22 12 - - WSW 1024,7 40 12 0,0
12.09.2019 16:00:00 23,4 15,0 - - 22 12 - - SW 1025,2 10 54 0,0
12.09.2019 15:00:00 22,8 15,3 - - 28 15 - - WSW 1025,4 10 18 0,0
12.09.2019 14:00:00 23,0 15,3 - - 26 14 - - WSW 1025,8 10 30 0,0
12.09.2019 13:00:00 21,3 15,0 - - 31 17 - - W 1026,4 10 18 0,0
12.09.2019 12:00:00 20,3 13,8 - - 22 12 - - WSW 1026,5 10 54 0,0
12.09.2019 11:00:00 19,4 13,2 - - 22 12 - - WSW 1026,5 10 60 0,0
12.09.2019 10:00:00 17,9 13,5 15,4 15,4 16 9 - - WSW 1026,2 10 60 0,0
12.09.2019 09:00:00 15,7 13,3 - - 16 9 - - WSW 1026,3 15 60 0,0
12.09.2019 08:00:00 13,4 13,2 - - 13 7 - - WSW 1025,9 10 60 0,0
12.09.2019 07:00:00 12,1 11,8 - - 8 4 - - SW 1025,2 10 0 0,0
12.09.2019 06:00:00 10,3 9,3 - - 9 5 - - W 1024,7 16 0 0,0
12.09.2019 05:00:00 11,9 10,4 - - 9 5 - - WSW 1024,5 28 0 0,0
12.09.2019 04:00:00 14,1 11,8 - - 11 6 - - WSW 1024,3 10 0 0,0
12.09.2019 03:00:00 14,9 10,7 - - 8 4 - - SSW 1024,1 10 0 0,0
12.09.2019 02:00:00 14,4 11,1 - - 5 3 - - SW 1023,4 30 0 0,0
12.09.2019 01:00:00 14,5 10,3 - - 4 2 - - SE 1023,1 40 - 0,0
12.09.2019 00:00:00 15,1 9,8 - - 4 2 - - NNE 1023,0 10 0 0,0
11.09.2019 23:00:00 15,4 10,7 - - 8 4 - - NE 1022,6 10 0 0,0
11.09.2019 22:00:00 16,6 11,4 - - 9 5 - - NNE 1022,1 10 0 0,0
11.09.2019 21:00:00 17,9 11,8 - - 11 6 - - NW 1021,2 10 0 0,0
11.09.2019 20:00:00 18,9 15,9 - - 18 10 - - WSW 1020,1 10 12 0,0
11.09.2019 19:00:00 19,7 15,1 - - 18 10 - - WSW 1019,1 10 54 0,0
11.09.2019 18:00:00 21,4 15,8 - - 21 11 - - WSW 1018,3 10 30 0,0
11.09.2019 17:00:00 22,1 16,0 - - 24 13 - - WSW 1017,7 10 12 0,0
11.09.2019 16:00:00 21,7 15,9 - - 28 15 - - WSW 1017,5 10 54 0,0
11.09.2019 15:00:00 19,1 16,1 - - 29 16 50 27 W 1017,8 10 0 0,0
11.09.2019 14:00:00 20,0 15,3 - - 26 14 - - WSW 1017,4 10 6 0,0
11.09.2019 13:00:00 18,7 16,1 - - 26 14 - - WSW 1017,3 10 0 0,2
11.09.2019 12:00:00 17,3 14,3 - - 28 15 50 27 WSW 1017,3 5 0 0,0
11.09.2019 11:00:00 16,9 13,7 - - 26 14 - - WSW 1017,3 10 6 0,0
11.09.2019 10:00:00 14,5 12,7 15,2 15,5 24 13 - - SW 1017,5 10 0 0,2
11.09.2019 09:00:00 13,8 10,9 - - 26 14 - - SW 1017,3 10 0 0,0
11.09.2019 08:00:00 13,3 10,1 - - 22 12 - - SW 1016,9 10 0 0,0
11.09.2019 07:00:00 13,0 9,9 - - 24 13 - - SW 1017,1 10 0 0,0
11.09.2019 06:00:00 13,0 9,5 - - 21 11 - - SW 1017,3 35 0 0,0
11.09.2019 05:00:00 13,1 9,1 - - 18 10 - - WSW 1018,0 40 0 0,0
11.09.2019 04:00:00 13,4 9,7 - - 18 10 - - WSW 1018,0 45 0 0,0
11.09.2019 03:00:00 13,7 10,0 - - 16 9 - - SW 1018,6 40 0 0,0
11.09.2019 02:00:00 13,5 10,6 - - 15 8 - - SW 1019,1 28 0 0,0
11.09.2019 01:00:00 13,4 10,8 - - 11 6 - - SW 1019,3 10 - 0,0
11.09.2019 00:00:00 13,0 10,5 - - 8 4 - - SSW 1019,7 10 0 0,0
10.09.2019 23:00:00 12,0 10,1 - - 5 3 - - SW 1019,9 10 0 0,0
10.09.2019 22:00:00 12,0 9,1 - - 8 4 - - SSW 1019,9 10 0 0,0
10.09.2019 21:00:00 13,8 10,6 - - 8 4 - - SW 1019,8 10 0 0,0
10.09.2019 20:00:00 14,5 11,0 - - 5 3 - - WSW 1019,7 10 0 0,0
10.09.2019 19:00:00 15,7 11,1 - - 9 5 - - W 1019,5 10 0 0,0
10.09.2019 18:00:00 16,3 10,8 - - 9 5 - - WNW 1019,3 10 0 0,0
10.09.2019 17:00:00 17,1 10,9 - - 11 6 - - WSW 1019,0 10 0 0,0
10.09.2019 16:00:00 17,1 10,9 - - 15 8 - - WNW 1019,1 10 0 0,0
10.09.2019 15:00:00 17,5 11,3 - - 16 9 - - W 1018,8 10 12 0,0
10.09.2019 14:00:00 18,2 10,9 - - 15 8 - - W 1018,6 10 24 0,0
10.09.2019 13:00:00 16,8 11,7 - - 15 8 - - WNW 1019,0 10 6 0,0
10.09.2019 12:00:00 17,4 11,9 - - 13 7 - - W 1018,7 10 24 0,0
10.09.2019 11:00:00 16,0 12,1 - - 13 7 - - W 1018,7 10 18 0,0
10.09.2019 10:00:00 14,0 12,3 15,0 15,7 8 4 - - W 1018,2 10 0 0,0
10.09.2019 09:00:00 13,3 11,7 - - 8 4 - - WNW 1018,1 10 18 0,0
10.09.2019 08:00:00 12,9 12,5 - - 9 5 - - NW 1017,7 8 18 0,0
10.09.2019 07:00:00 10,5 10,2 - - 5 3 - - NW 1016,9 10 0 0,0
10.09.2019 06:00:00 10,1 9,5 - - 5 3 - - WNW 1016,5 0,7 0 0,0
10.09.2019 05:00:00 11,1 9,7 - - 5 3 - - WSW 1015,8 10 0 0,0
10.09.2019 04:00:00 12,2 10,3 - - 4 2 - - SW 1015,4 10 0 0,0
10.09.2019 03:00:00 11,5 10,5 - - 2 1 - - NNW 1015,5 10 0 0,0
10.09.2019 02:00:00 11,7 10,8 - - 4 2 - - NE 1015,5 16 0 0,0
10.09.2019 01:00:00 11,9 10,9 - - 2 1 - - S 1015,0 10 - 0,0
10.09.2019 00:00:00 12,1 10,3 - - 2 1 - - SSE 1014,6 10 0 0,0
09.09.2019 23:00:00 12,5 10,3 - - 5 3 - - SE 1014,1 10 0 0,0
09.09.2019 22:00:00 12,5 10,5 - - 5 3 - - ESE 1013,8 10 0 0,0
09.09.2019 21:00:00 12,3 10,8 - - 5 3 - - ESE 1013,5 10 0 0,0
09.09.2019 20:00:00 12,3 10,8 - - 5 3 - - ESE 1013,3 10 0 0,0
09.09.2019 19:00:00 12,3 10,8 - - 8 4 - - ESE 1012,8 10 0 0,2
09.09.2019 18:00:00 12,7 11,1 - - 8 4 - - SSE 1012,6 10 0 0,4
09.09.2019 17:00:00 13,1 10,9 - - 8 4 - - SSE 1012,2 10 0 0,2
09.09.2019 16:00:00 13,2 11,1 - - 13 7 - - S 1012,1 10 0 0,0
09.09.2019 15:00:00 12,8 11,3 - - 13 7 - - S 1012,4 10 0 0,0
09.09.2019 14:00:00 12,7 11,4 - - 15 8 - - S 1012,8 15 0 0,4
09.09.2019 13:00:00 12,3 11,3 - - 13 7 - - S 1013,2 10 0 0,2
09.09.2019 12:00:00 11,7 10,7 - - 15 8 - - SSW 1013,6 10 0 0,6
09.09.2019 11:00:00 11,7 11,0 - - 15 8 - - SSW 1013,9 8 0 0,8
09.09.2019 10:00:00 11,5 10,4 15,0 15,7 16 9 - - SSW 1014,3 6 0 0,2
09.09.2019 09:00:00 11,7 8,7 - - 15 8 - - SSW 1014,2 10 0 0,0
09.09.2019 08:00:00 11,5 7,3 - - 11 6 - - S 1014,3 10 0 0,0
09.09.2019 07:00:00 10,8 6,4 - - 11 6 - - S 1014,7 10 0 0,0

tt = Température de l'air
td = dewpoint
tt -20cm = Température de l'air -20cm
tt -100cm = Température de l'air -100cm
ff = Vitesse du vent
fx = gusts
dd = Direction du vent
ppp = reduced air pressure
vv = visibility
sd = Ensoleillement
rr = Quantités de précipitations

stations d'obs. à proximité